Regional Weather Roundup
Issued by NWS

Home | Current Version | Previous Version | Graphics & Text | Print | Product List | Glossary Off
Versions: 1 2 3 4 5 6 7 8 9 10 11 12 13 14 15 16 17 18 19 20 21 22 23 24 25 26 27 28 29 30 31 32 33 34 35 36 37 38 39 40 41 42 43 44 45 46 47 48 49 50

000
ASUS43 KMKX 210511
RWRWI

WISCONSIN REGIONAL WEATHER ROUNDUP
NATIONAL WEATHER SERVICE MILWAUKEE/SULLIVAN WI
1100 PM CST SAT DEC 20 2014

NOTE: "FAIR" INDICATES FEW OR NO CLOUDS BELOW 12,000 FEET WITH NO
SIGNIFICANT WEATHER AND/OR OBSTRUCTIONS TO VISIBILITY.

WIZ001-002-006>008-014>016-023>028-210600-
NORTHWEST WISCONSIN

CITY           SKY/WX    TMP DP  RH WIND       PRES   REMARKS
SUPERIOR ARPT  CLOUDY    32  28  83 SW10      30.08F WCI  24
ASHLAND        CLOUDY    31  26  82 S8        30.11S WCI  23
HAYWARD        CLOUDY    30  26  85 S13       30.10R FOG     WCI  20
SIREN          CLOUDY    31  28  86 S8        30.08F WCI  24
CUMBERLAND     CLOUDY    30  28  93 S9        30.09F FOG     WCI  22
RICE LAKE      CLOUDY    31  28  91 SE8       30.13S FOG     WCI  23
CHETEK         CLOUDY    30  28  91 SE7       30.12S FOG     WCI  23
LADYSMITH      CLOUDY    31  28  91 S6        30.14R FOG     WCI  25
EAU CLAIRE     CLOUDY    30  28  92 S6        30.13S FOG     WCI  24
MENOMONIE      CLOUDY    31  30  95 SE6       30.12F FOG     WCI  25
NEW RICHMOND   CLOUDY    31  29  92 S8        30.10S WCI  24
OSCEOLA        CLOUDY    32  29  90 S8        30.12F WCI  24
$$

WIZ003>005-009-010-017-018-210600-
NORTH CENTRAL WISCONSIN

CITY           SKY/WX    TMP DP  RH WIND       PRES   REMARKS
MANITOWISH WTR CLOUDY    27  26  98 S8        30.10S WCI  19
ARBOR VITAE    CLOUDY    29  27  92 S7        30.10S FOG     WCI  22
WOODRUFF       CLOUDY    29  27  92 S7        30.10S FOG     WCI  22
RHINELANDER    CLOUDY    26  24  92 S5        30.12F WCI  20
EAGLE RIVER    CLOUDY    27  26  96 S3        30.11S
LAND O LAKES   CLOUDY    28  26  93 CALM      30.11F
PHILLIPS       CLOUDY    28  26  93 S6        30.10F FOG     WCI  21
TOMAHAWK       CLOUDY    28  25  91 CALM      30.13S FOG
MEDFORD        CLOUDY    28  26  96 S8        30.12S FOG     WCI  19
MERRILL        CLOUDY    28  26  91 S3        30.14S
$$

WIZ029-030-035-036-043>047-210600-
CENTRAL WISCONSIN

CITY           SKY/WX    TMP DP  RH WIND       PRES   REMARKS
WAUSAU         CLOUDY    28  25  88 S6        30.14S WCI  22
MOSINEE        CLOUDY    28  28 100 SE6       30.16S WCI  22
MARSHFIELD     CLOUDY    29  26  89 S7        30.14S FOG     WCI  22
STEVENS POINT  CLOUDY    27  25  91 S3        30.17S FOG
WAUPACA        CLOUDY    30  27  89 SE5       30.20S FOG     WCI  25
WAUTOMA        CLOUDY    30  28  92 SE5       30.20S FOG     WCI  25
WISC RAPIDS    CLOUDY    29  25  85 SE5       30.17F WCI  24
CAMP DOUGLAS   CLOUDY    29  29 100 SE6       30.16F WCI  23
$$

WIZ011>013-019>022-031-037>040-048>050-210600-
NORTHEAST WISCONSIN

CITY           SKY/WX    TMP DP  RH WIND       PRES   REMARKS
ANTIGO         CLOUDY    25  24  97 S7        30.14F FOG     WCI  17
SHAWANO        CLOUDY    30  26  84 CALM      30.20F FOG
OCONTO         CLOUDY    28  27  94 CALM      30.21S
STURGEON BAY   CLOUDY    28  25  86 CALM      30.22S
GREEN BAY      CLOUDY    29  27  92 CALM      30.21F FOG
MANITOWOC      CLOUDY    30  28  92 CALM      30.22F
APPLETON       CLOUDY    28  28 100 S3        30.20S FOG
CLINTONVILLE   CLOUDY    28  27  93 S3        30.20S FOG
OSHKOSH        CLOUDY    29  26  89 S5        30.20F FOG     WCI  24
$$

WIZ032>034-041-042-053>061-210600-
SOUTHWEST WISCONSIN

CITY           SKY/WX    TMP DP  RH WIND       PRES   REMARKS
LA CROSSE      CLOUDY    33  28  81 S8        30.16S WCI  26
SPARTA         CLOUDY    31  27  86 S6        30.17S FOG     WCI  25
VIROQUA        CLOUDY    29  29 100 S7        30.14S WCI  22
BOSCOBEL       CLOUDY    32  27  81 CALM      30.18F HAZE
PRAIRIE DU CHI CLOUDY    32  28  87 E3        30.17F FOG
PLATTEVILLE    CLOUDY    31  29  94 CALM      30.17F
$$

WIZ056-057-062-063-064-067-068-210600-
SOUTH CENTRAL WISCONSIN

CITY           SKY/WX    TMP DP  RH WIND       PRES   REMARKS
REEDSBURG      CLOUDY    29  26  88 SE3       30.17S
BARABOO/DELLS  CLOUDY    29  26  87 S9        30.17S FOG     WCI  21
LONE ROCK      CLOUDY    34  26  72 SE5       30.19S WCI  30
MINERAL POINT  CLOUDY    32  30  93 SE7       30.16F FOG     WCI  26
MADISON        CLOUDY    30  26  85 S8        30.20S WCI  22
MIDDLETON      CLOUDY    32  27  83 S5        30.20S WCI  27
WATERTOWN      CLOUDY    30  28  94 S3        30.20F
MONROE         CLOUDY    30  28  93 S9        30.18F WCI  22
JANESVILLE     CLOUDY    32  28  86 SE5       30.21S WCI  27
$$

WIZ051-052-058>065-066-070>072-210600-
SOUTHEAST WISCONSIN

CITY           SKY/WX    TMP DP  RH WIND       PRES   REMARKS
MILWAUKEE      CLOUDY    32  24  72 S7        30.23F WCI  26
WAUKESHA       CLOUDY    30  27  86 S3        30.22F
MILWAUKEE/TIMM CLOUDY    32  27  80 S3        30.23F
RACINE         CLOUDY    32  25  75 S6        30.25F WCI  26
BURLINGTON     CLOUDY    29  25  86 S3        30.22F
KENOSHA        CLOUDY    31  26  82 S5        30.23F WCI  26
FOND DU LAC    CLOUDY    30  26  85 S6        30.20F WCI  24
SHEBOYGAN      CLOUDY    30  25  81 S3        30.22S
WEST BEND      CLOUDY    30  27  86 CALM      30.21S
JUNEAU         CLOUDY    29  27  90 S6        30.21F FOG     WCI  23
$$

LSZ147-162-210600-
LAKE SUPERIOR

STATION/POSITION TIME  TEMP    WIND        PRES    WAVE
                       AIR SEA DIR/SP/G            HT/PER
                 (UTC) (F)     (DEG/KT/KT) (MB)    (FT/S)
DEVILS ISLAND    0500   32     190/  8/ 12 1020.5S
PORT WING        0440   32     190/  7/ 11 1019.3S
SAXON HARBOR     0400   32     170/  1/  5 1019.6F
$$

LMZ867-665-643>646-210600-
LAKE MICHIGAN

STATION/POSITION TIME  TEMP    WIND        PRES    WAVE
                       AIR SEA DIR/SP/G            HT/PER
                 (UTC) (F)     (DEG/KT/KT) (MB)    (FT/S)
CHAMBERS ISLAND  0400   28        CALM     1023.4F
NORTHPORT PIER   0400   31      CALM  /  3 1023.4S
SISTER BAY       0443             CALM       N/A
ALGOMA LAKESHORE 0414          340/  6/  6   N/A
KEWAUNEE LAKESHO 0400   28     300/  2/  5 1022.4F
SHEBOYGAN LAKESH 0500   31 34  200/  5/  6 1024.5S
PORT WASHINGTON  0400   31     230/  3/  4 1024.4
MILWAUKEE LAKESH 0400   32     230/  9/ 11   N/A
KENOSHA   LAKESH 0500   32     190/  3/  5 1023.7F
$$

TC  - TEMPERATURE IN CELSIUS
VSB - VISIBILITY IN STATUTE MILES
WCI - WIND CHILL INDEX
HX  - HEAT INDEX



USA.gov is the U.S. government's official web portal to all federal, state and local government web resources and services.